Location: Holiday Acres Laynes 2 Mobile Home Park
(26.7249°N, 81.8671°W)
Time: 13:15:15
(UTC+00:00)

PSLV R/B - Pass Details

Date: 25 November 2020
Orbit: 568 x 597 km, 98.2° (Epoch: 23 January)

Event Time Altitude Azimuth Distance (km) Brightness Sun altitude
Exits shadow 23:31:35 - 14° (NNE) 2,603 7.0 -12.8°
Reaches altitude 10° 23:33:20 10° 16° (NNE) 1,868 6.2 -13.2°
Maximum altitude 23:37:22 76° 101° (E) 588 3.8 -14.1°
Drops below altitude 10° 23:41:23 10° 188° (S) 1,860 6.8 -14.9°
Sets 23:43:32 0° 190° (S) 2,756 7.8 -15.4°
